�������l�o���
Date,Time,MP-1(��Sv/h),MP-2(��Sv/h),MP-3(��Sv/h),MP-4(��Sv/h),MP-5(��Sv/h),MP-6(��Sv/h),MP-7(��Sv/h),����,����(m/s),���J
2023/05/09,00:00,0.144,0.130,0.205,0.202,0.206,0.115,0.074,�k��,5.6,��
2023/05/09,00:10,0.144,0.130,0.206,0.202,0.207,0.115,0.075,�k�k��,5.1,��
2023/05/09,00:20,0.144,0.130,0.206,0.203,0.208,0.115,0.074,�k��,5.5,��
2023/05/09,00:30,0.144,0.130,0.206,0.201,0.206,0.115,0.075,�k��,5.1,��
2023/05/09,00:40,0.143,0.130,0.205,0.202,0.206,0.115,0.074,�k��,5.3,��
2023/05/09,00:50,0.144,0.130,0.205,0.201,0.206,0.114,0.074,�k��,5.1,��
2023/05/09,01:00,0.144,0.129,0.206,0.201,0.207,0.116,0.075,�k��,5.8,��
2023/05/09,01:10,0.144,0.129,0.205,0.201,0.207,0.114,0.075,�k��,7.0,��
2023/05/09,01:20,0.144,0.130,0.206,0.202,0.208,0.115,0.074,�k��,7.2,��
2023/05/09,01:30,0.143,0.130,0.206,0.201,0.207,0.115,0.075,�k��,7.1,��
2023/05/09,01:40,0.144,0.130,0.207,0.202,0.207,0.115,0.075,�k��,7.4,��
2023/05/09,01:50,0.143,0.131,0.205,0.202,0.206,0.114,0.074,�k��,6.9,��
2023/05/09,02:00,0.143,0.131,0.206,0.201,0.208,0.114,0.075,�k��,6.4,��
2023/05/09,02:10,-,-,-,-,-,-,-,-,-,-
2023/05/09,02:20,0.145,0.130,0.206,0.201,0.206,0.115,0.075,�k��,6.4,��
2023/05/09,02:30,0.144,0.130,0.205,0.202,0.207,0.115,0.074,�k��,6.0,��
2023/05/09,02:40,0.143,0.130,0.206,0.202,0.207,0.115,0.074,�k��,6.1,��
2023/05/09,02:50,0.144,0.130,0.205,0.202,0.207,0.114,0.074,�k�k��,6.5,��
2023/05/09,03:00,0.143,0.130,0.206,0.202,0.206,0.114,0.074,�k��,5.9,��
2023/05/09,03:10,0.143,0.129,0.205,0.202,0.207,0.115,0.075,�k��,5.8,��
2023/05/09,03:20,0.144,0.131,0.205,0.203,0.207,0.114,0.074,�k��,5.6,��
2023/05/09,03:30,0.144,0.129,0.205,0.201,0.208,0.114,0.074,�k��,5.8,��
2023/05/09,03:40,0.143,0.130,0.205,0.202,0.206,0.114,0.074,�k��,5.3,��
2023/05/09,03:50,0.143,0.131,0.206,0.202,0.206,0.115,0.075,�k��,4.9,��
2023/05/09,04:00,0.144,0.129,0.205,0.202,0.207,0.115,0.075,�k��,3.9,��
2023/05/09,04:10,0.143,0.129,0.206,0.200,0.206,0.115,0.075,�k�k��,3.7,��
2023/05/09,04:20,0.142,0.130,0.205,0.201,0.208,0.115,0.075,�k�k��,3.9,��
2023/05/09,04:30,0.144,0.130,0.206,0.201,0.206,0.115,0.073,�k��,4.0,��
2023/05/09,04:40,0.144,0.130,0.205,0.202,0.206,0.114,0.075,�k�k��,4.3,��
2023/05/09,04:50,0.143,0.130,0.206,0.202,0.206,0.115,0.074,�k�k��,4.4,��
2023/05/09,05:00,0.145,0.130,0.205,0.201,0.206,0.115,0.074,�k��,4.1,��
2023/05/09,05:10,0.144,0.130,0.206,0.201,0.206,0.114,0.075,�k�k��,3.9,��
2023/05/09,05:20,0.144,0.129,0.206,0.202,0.206,0.115,0.075,�k�k��,3.9,��
2023/05/09,05:30,0.144,0.130,0.205,0.202,0.205,0.115,0.074,�k�k��,4.4,��
2023/05/09,05:40,0.144,0.131,0.205,0.202,0.206,0.115,0.074,�k�k��,4.7,��
2023/05/09,05:50,0.144,0.130,0.206,0.203,0.206,0.115,0.074,�k�k��,5.4,��
2023/05/09,06:00,0.144,0.129,0.205,0.202,0.207,0.115,0.075,�k�k��,4.6,��
2023/05/09,06:10,0.144,0.130,0.205,0.201,0.207,0.114,0.074,�k�k��,4.9,��
2023/05/09,06:20,0.144,0.130,0.205,0.201,0.207,0.115,0.074,�k�k��,4.2,��
2023/05/09,06:30,0.144,0.130,0.206,0.201,0.205,0.115,0.075,�k��,4.6,��
2023/05/09,06:40,0.143,0.130,0.206,0.202,0.207,0.115,0.074,�k�k��,4.1,��
2023/05/09,06:50,0.143,0.129,0.206,0.201,0.206,0.116,0.074,�k�k��,3.2,��
2023/05/09,07:00,0.144,0.130,0.205,0.202,0.206,0.115,0.074,�k�k��,2.1,��
2023/05/09,07:10,0.144,0.129,0.204,0.201,0.207,0.115,0.074,�k�k��,2.3,��
2023/05/09,07:20,0.144,0.129,0.205,0.201,0.205,0.115,0.074,�k�k��,1.7,��
2023/05/09,07:30,0.144,0.130,0.203,0.201,0.208,0.115,0.074,�k,1.1,��
2023/05/09,07:40,0.143,0.130,0.205,0.201,0.207,0.115,0.074,�k�k��,0.9,��
2023/05/09,07:50,0.143,0.129,0.203,0.201,0.208,0.115,0.074,�k�k��,0.8,��
2023/05/09,08:00,0.145,0.130,0.205,0.201,0.207,0.115,0.074,�k��,1.1,��
2023/05/09,08:10,0.144,0.129,0.203,0.200,0.206,0.114,0.074,���k��,1.3,��
2023/05/09,08:20,0.143,0.129,0.205,0.202,0.207,0.116,0.075,�k��,1.9,��
2023/05/09,08:30,0.144,0.130,0.204,0.200,0.206,0.114,0.075,�k��,1.3,��
2023/05/09,08:40,0.144,0.129,0.205,0.203,0.207,0.114,0.073,���k��,0.8,��
2023/05/09,08:50,0.143,0.130,0.205,0.201,0.206,0.114,0.074,��,1.8,��
2023/05/09,09:00,0.143,0.129,0.205,0.200,0.205,0.115,0.074,���쓌,1.7,��
2023/05/09,09:10,0.143,0.129,0.206,0.203,0.206,0.115,0.075,���쓌,1.4,��
2023/05/09,09:20,0.143,0.129,0.204,0.201,0.206,0.114,0.074,���쓌,1.5,��
2023/05/09,09:30,0.145,0.130,0.204,0.202,0.207,0.116,0.075,���쓌,1.8,��
2023/05/09,09:40,0.143,0.129,0.207,0.203,0.207,0.115,0.075,��,2.0,��
2023/05/09,09:50,0.144,0.129,0.206,0.200,0.205,0.115,0.075,��,2.0,��
2023/05/09,10:00,0.144,0.130,0.206,0.203,0.209,0.116,0.075,���쓌,2.4,��
2023/05/09,10:10,0.144,0.129,0.207,0.203,0.205,0.114,0.075,��,2.4,��
2023/05/09,10:20,0.144,0.130,0.205,0.200,0.207,0.115,0.074,���쓌,2.6,��
2023/05/09,10:30,0.143,0.129,0.206,0.204,0.208,0.115,0.075,��,2.8,��
2023/05/09,10:40,0.144,0.129,0.206,0.203,0.207,0.115,0.075,��,3.1,��
2023/05/09,10:50,0.142,0.129,0.205,0.202,0.208,0.115,0.076,���쓌,2.5,��
2023/05/09,11:00,0.144,0.131,0.207,0.204,0.207,0.116,0.074,���쓌,3.1,��
2023/05/09,11:10,0.144,0.130,0.206,0.202,0.209,0.116,0.075,���쓌,3.0,��
2023/05/09,11:20,0.142,0.130,0.205,0.203,0.208,0.115,0.075,���쓌,3.3,��
2023/05/09,11:30,0.144,0.130,0.206,0.205,0.206,0.115,0.074,���쓌,4.1,��
2023/05/09,11:40,0.143,0.130,0.206,0.202,0.209,0.116,0.075,���쓌,3.9,��
2023/05/09,11:50,0.145,0.130,0.207,0.204,0.206,0.116,0.075,���쓌,3.1,��
2023/05/09,12:00,0.143,0.129,0.206,0.203,0.208,0.116,0.074,���쓌,3.6,��
2023/05/09,12:10,0.144,0.131,0.205,0.203,0.208,0.116,0.074,���쓌,3.3,��
2023/05/09,12:20,0.145,0.129,0.207,0.204,0.206,0.115,0.074,���쓌,3.4,��
2023/05/09,12:30,0.143,0.131,0.206,0.202,0.211,0.116,0.075,�쓌,3.3,��
2023/05/09,12:40,0.144,0.130,0.206,0.203,0.206,0.115,0.074,�쓌,3.5,��
2023/05/09,12:50,0.145,0.130,0.207,0.203,0.207,0.116,0.074,�쓌,3.3,��
2023/05/09,13:00,0.144,0.131,0.206,0.202,0.210,0.115,0.075,�쓌,3.9,��
2023/05/09,13:10,0.143,0.130,0.208,0.204,0.207,0.115,0.074,�쓌,3.6,��
2023/05/09,13:20,0.145,0.130,0.207,0.204,0.207,0.116,0.075,�쓌,3.0,��
2023/05/09,13:30,-,-,-,-,-,-,-,-,-,-
2023/05/09,13:40,0.143,0.130,0.208,0.205,0.207,0.116,0.074,�쓌,3.0,��
2023/05/09,13:50,0.145,0.130,0.206,0.204,0.207,0.115,0.075,�쓌,2.6,��
2023/05/09,14:00,0.144,0.130,0.208,0.202,0.210,0.115,0.074,�쓌,3.0,��
2023/05/09,14:10,0.144,0.130,0.207,0.205,0.207,0.116,0.074,�쓌,3.0,��
2023/05/09,14:20,0.145,0.129,0.208,0.203,0.207,0.116,0.075,��쓌,3.2,��
2023/05/09,14:30,0.145,0.131,0.207,0.203,0.209,0.115,0.074,�쓌,2.7,��
2023/05/09,14:40,0.143,0.131,0.206,0.205,0.207,0.116,0.075,�쓌,3.3,��
2023/05/09,14:50,0.146,0.131,0.209,0.202,0.207,0.116,0.074,�쓌,3.3,��
2023/05/09,15:00,0.145,0.131,0.208,0.205,0.209,0.115,0.074,��쓌,3.3,��
2023/05/09,15:10,-,-,-,-,-,-,-,-,-,-
2023/05/09,15:20,0.144,0.131,0.209,0.203,0.206,0.115,0.074,��쓌,3.8,��
2023/05/09,15:30,0.145,0.130,0.207,0.204,0.210,0.115,0.075,��쓌,4.0,��
2023/05/09,15:40,0.143,0.131,0.209,0.204,0.208,0.116,0.075,��쓌,3.7,��
2023/05/09,15:50,0.144,0.130,0.208,0.205,0.206,0.115,0.075,��쓌,3.6,��
2023/05/09,16:00,0.144,0.130,0.208,0.205,0.209,0.117,0.075,��쓌,3.8,��
2023/05/09,16:10,0.143,0.130,0.208,0.206,0.209,0.116,0.075,��쓌,3.7,��
2023/05/09,16:20,-,-,-,-,-,-,-,-,-,-
2023/05/09,16:30,0.144,0.131,0.210,0.206,0.209,0.117,0.075,��쓌,2.8,��
2023/05/09,16:40,0.144,0.131,0.208,0.204,0.209,0.116,0.075,�쓌,2.7,��
2023/05/09,16:50,0.145,0.131,0.209,0.205,0.207,0.116,0.075,��쓌,2.9,��
2023/05/09,17:00,0.144,0.131,0.208,0.206,0.211,0.116,0.075,��쓌,3.3,��
2023/05/09,17:10,0.146,0.130,0.209,0.204,0.208,0.117,0.075,��쓌,3.1,��
2023/05/09,17:20,0.145,0.131,0.209,0.205,0.208,0.117,0.075,�쓌,2.7,��
2023/05/09,17:30,0.146,0.131,0.209,0.205,0.210,0.116,0.075,��쓌,2.7,��
2023/05/09,17:40,0.145,0.130,0.209,0.207,0.209,0.116,0.075,��쓌,2.6,��
2023/05/09,17:50,0.145,0.131,0.210,0.205,0.210,0.117,0.075,��쓌,3.0,��
2023/05/09,18:00,0.145,0.131,0.208,0.204,0.210,0.116,0.074,��쓌,3.0,��
2023/05/09,18:10,0.144,0.132,0.208,0.204,0.209,0.116,0.075,��쓌,3.0,��
2023/05/09,18:20,0.145,0.131,0.208,0.204,0.209,0.116,0.075,��쓌,2.7,��
2023/05/09,18:30,0.144,0.131,0.209,0.206,0.210,0.115,0.075,��,3.8,��
2023/05/09,18:40,0.146,0.130,0.209,0.204,0.210,0.116,0.075,��,3.0,��
2023/05/09,18:50,0.144,0.131,0.208,0.205,0.209,0.117,0.075,��,2.9,��
2023/05/09,19:00,0.145,0.131,0.209,0.206,0.209,0.115,0.075,��,2.6,��
2023/05/09,19:10,0.145,0.131,0.210,0.205,0.209,0.117,0.075,��,2.6,��
2023/05/09,19:20,0.145,0.131,0.209,0.204,0.210,0.117,0.075,��쐼,2.3,��
2023/05/09,19:30,0.145,0.131,0.209,0.206,0.210,0.117,0.076,��,1.8,��
2023/05/09,19:40,0.145,0.132,0.210,0.205,0.210,0.117,0.075,��,1.5,��
2023/05/09,19:50,0.145,0.132,0.209,0.205,0.209,0.117,0.075,��,2.2,��
2023/05/09,20:00,0.145,0.131,0.208,0.206,0.208,0.117,0.075,��쐼,3.6,��
2023/05/09,20:10,0.145,0.131,0.209,0.205,0.209,0.116,0.075,��쐼,3.2,��
2023/05/09,20:20,0.145,0.131,0.209,0.205,0.211,0.116,0.074,��쐼,3.0,��
2023/05/09,20:30,0.146,0.131,0.208,0.206,0.209,0.116,0.075,��쐼,3.5,��
2023/05/09,20:40,0.145,0.130,0.207,0.206,0.209,0.117,0.075,��쐼,3.6,��
2023/05/09,20:50,0.146,0.133,0.209,0.206,0.210,0.117,0.075,��,3.8,��
2023/05/09,21:00,0.145,0.132,0.210,0.205,0.209,0.117,0.075,��,3.4,��
2023/05/09,21:10,0.145,0.132,0.210,0.205,0.210,0.116,0.075,��쐼,3.3,��
2023/05/09,21:20,0.145,0.132,0.210,0.205,0.210,0.117,0.075,��쐼,3.4,��
2023/05/09,21:30,0.144,0.131,0.208,0.206,0.208,0.117,0.075,��쐼,3.6,��
2023/05/09,21:40,0.145,0.131,0.209,0.205,0.210,0.116,0.075,��쐼,3.5,��
2023/05/09,21:50,0.146,0.131,0.209,0.206,0.209,0.117,0.074,��,3.7,��
2023/05/09,22:00,0.146,0.131,0.209,0.205,0.209,0.118,0.075,��쐼,3.6,��
2023/05/09,22:10,0.145,0.131,0.210,0.205,0.210,0.117,0.075,��쐼,3.4,��
2023/05/09,22:20,0.146,0.132,0.209,0.206,0.208,0.117,0.075,��쐼,3.7,��
2023/05/09,22:30,0.145,0.132,0.209,0.205,0.209,0.117,0.074,��쐼,3.5,��
2023/05/09,22:40,0.145,0.131,0.209,0.206,0.210,0.117,0.075,��쐼,3.8,��
2023/05/09,22:50,0.146,0.131,0.209,0.206,0.209,0.116,0.076,��쐼,4.0,��
2023/05/09,23:00,0.145,0.131,0.209,0.205,0.210,0.116,0.075,��쐼,4.2,��
2023/05/09,23:10,0.145,0.131,0.209,0.205,0.209,0.117,0.075,��쐼,4.1,��
2023/05/09,23:20,0.146,0.131,0.209,0.206,0.210,0.116,0.075,�쐼,4.2,��
2023/05/09,23:30,0.144,0.132,0.209,0.205,0.209,0.117,0.075,��쐼,3.7,��
2023/05/09,23:40,0.145,0.132,0.210,0.205,0.209,0.116,0.075,��쐼,3.8,��
2023/05/09,23:50,0.146,0.131,0.209,0.205,0.209,0.116,0.075,��쐼,4.3,��
